Miscellaneous Local Product
Issued by NWS North Platte, NE

Home | Current Version | Previous Version | Graphics & Text | Print | Product List | Glossary On
Versions: 1 2 3 4 5 6 7 8 9 10 11 12 13 14 15 16 17 18 19 20 21 22 23 24 25 26 27 28 29 30 31 32 33 34 35 36 37 38 39 40 41 42 43 44 45 46 47 48 49 50
165
AXUS43 KLBF 171710
MISLBF


WESTERN AND NORTH CENTRAL NEBRASKA HOURLY WEATHER ROUNDUP
NATIONAL WEATHER SERVICE NORTH PLATTE NE
1100 AM CST WED JAN 17 2018

NOTE: "FAIR" INDICATES FEW OR NO CLOUDS BELOW 12,000 FEET WITH NO
SIGNIFICANT WEATHER AND/OR OBSTRUCTIONS TO VISIBILITY.

NOTE: STATIONS NOT REPORTING VARIABLES SUCH AS SKY/WEATHER OR
PRESSURE ARE PROVIDED BY RAWS AND APRS NETWORKS AND ARE NOT UNDER
NATIONAL WEATHER SERVICE QUALITY CONTROL.

...OBSERVATIONS IN AND NEAR THE EASTERN PANHANDLE OF NEBRASKA...

CITY           SKY/WX    TMP DP  RH WIND       PRES   REMARKS
PINE RIDGE     SUNNY     29  12  49 SW6       30.30R WCI  23
GORDON         FAIR      32  15  50 NW5       30.28R WCI  27
CHADRON        SUNNY     29  14  53 VRB7      30.32R WCI  22
ALLIANCE       SUNNY     17   8  67 CALM      30.28R
SIDNEY         SUNNY     32  15  49 NW8       30.29R WCI  25
CRESCENT LAKE    N/A     24  10  54 W6          N/A  WCI  17
$$

...OBSERVATIONS IN NORTHERN NEBRASKA AND FAR SOUTHERN SOUTH DAKOTA...

CITY           SKY/WX    TMP DP  RH WIND       PRES   REMARKS
WINNER         FAIR      28  14  55 SW10      30.27R WCI  19
VALENTINE      SUNNY     29  13  51 W9        30.28R WCI  20
AINSWORTH      SUNNY     28  13  54 W8        30.27S WCI  19
O`NEILL        SUNNY     23  11  58 SW14      30.31S WCI  11
THEDFORD       SUNNY     27   9  46 W7        30.30R WCI  19
BROKEN BOW     SUNNY     19   6  57 SW7       30.33S WCI  10
ORD            SUNNY     20   7  57 S7        30.36S WCI  11
ALBION         CLOUDY    22   8  56 SW12      30.39S WCI  10
VALENTINE NWR    N/A     28   8  42 SW6         N/A  WCI  22
HALSEY           N/A     22   2  42 SW5         N/A  WCI  16
BUTTE            N/A     20  10  64 SW5         N/A  WCI  14
CHAMBERS         N/A     23   7  50 S9          N/A  WCI  13
EWING            N/A     23  12  62 SW12        N/A  WCI  12
$$

...OBSERVATIONS IN SOUTHWEST NEBRASKA AND FAR NORTHEAST COLORADO...

CITY           SKY/WX    TMP DP  RH WIND       PRES   REMARKS
WRAY           FAIR      32  12  43 W5        30.32R WCI  27
HOLYOKE        FAIR      34  19  55 CALM      30.30S
IMPERIAL       SUNNY     22   8  55 CALM      30.33R
OGALLALA       SUNNY     24  13  64 W5        30.33R WCI  18
NORTH PLATTE   SUNNY     19   6  57 W6        30.35R WCI  11
MCCOOK         SUNNY     19   9  65 W5        30.38R WCI  12
LEXINGTON      MOSUNNY   21   7  55 SW8       30.37F WCI  11
STAPLETON        N/A     20  11  66 CALM        N/A
GOTHENBURG       N/A     22   5  48 CALM        N/A
CALLAWAY         N/A     22  11  63 W8          N/A  WCI  13
$$

...OBSERVATIONS IN CENTRAL LINCOLN COUNTY AREA...

CITY           SKY/WX    TMP DP  RH WIND       PRES   REMARKS
N.P. AIRPORT   SUNNY     19   6  57 W6        30.35R WCI  11
N.P. DOWNTOWN    N/A     17   9  70 CALM        N/A
N.P. SOUTHEAST   N/A     17   8  66 CALM        N/A
N.P. HILLCREST   N/A     15   8  75 W6          N/A  WCI   6
$$

...SOME OBSERVATIONS FROM AROUND THE REGION...

CITY           SKY/WX    TMP DP  RH WIND       PRES   REMARKS
DENVER         SUNNY     32  11  41 SW8       30.30R WCI  25
BERTHOUD PASS  FAIR      14   3  62 NW8G17    30.38R WCI   3
GRAND JUNCTION SUNNY     32  13  45 SE10      30.46R WCI  24
LARAMIE        SUNNY     30   5  34 NE6       30.34R WCI  24
CHEYENNE       SUNNY     41  11  29 NW15      30.29R
CASPER         SUNNY     32  13  45 SW16      30.35F WCI  21
BISMARCK       SUNNY     16   7  67 SW3       30.13R
RAPID CITY     SUNNY     40  24  53 NW13      30.26R WCI  32
PIERRE         SUNNY     19   9  65 W8        30.24R WCI   9
SIOUX FALLS    CLOUDY    17   6  62 SW10      30.32S WCI   5
OMAHA          CLOUDY    15   6  67 SE14      30.52S WCI   0
GRAND ISLAND   CLOUDY    20   5  52 SW14G24   30.43R WCI   7
SCOTTSBLUFF    SUNNY     19  10  68 NW8       30.31R WCI   9
KANSAS CITY    CLOUDY    15   7  70 SW10      30.65R WCI   2
HILL CITY      CLOUDY    21   3  45 SW12      30.43F WCI   9
WICHITA        SUNNY     20   8  60 S13       30.62F WCI   7
DODGE CITY     SUNNY     24   2  38 SW14      30.44R WCI  12
OKLAHOMA CITY  SUNNY     21   5  50 S8        30.68F WCI  11
DALLAS         SUNNY     23   3  42 CALM      30.77F
AMARILLO       SUNNY     33   3  28 SW20      30.43S WCI  21
$$




USA.gov is the U.S. government's official web portal to all federal, state and local government web resources and services.